Location: Newark
(52.4787°S, 179.0532°W)
Time: 01:16:15
(UTC+00:00)

Vanguard 1 - Pass Details

Date: 20 November 2019
Orbit: 652 x 3831 km, 34.2° (Epoch: 05 December)

Event Time Altitude Azimuth Distance (km) Brightness Sun altitude
Rises 11:17:04 0° 302° (WNW) 5,571 13.7 -17.6°
Reaches altitude 10° 11:20:27 10° 309° (NW) 4,942 13.3 -17.7°
Maximum altitude 11:34:29 42° 13° (NNE) 4,126 12.7 -17.8°
Drops below altitude 10° 11:54:36 10° 72° (ENE) 6,941 14.2 -17.8°
Sets 12:00:31 0° 78° (ENE) 7,950 14.6 -17.7°
